K0CJC Weather Reports


time (UTC)temp
F
wind
direction
speed
knots
gust
knots
rain 1hr
in
rain 24hr
in
rain mn
in
humidity
%
barometer
mb
20260504050521 59 230 2.6 5.2 0.00 0.00 0.00 37
20260504045529 58 218 1.7 6.1 0.00 0.00 0.00 37
20260504044541 58 220 1.7 4.3 0.00 0.00 0.00 37
20260504043529 58 204 1.7 6.1 0.00 0.00 0.00 37
20260504042521 57 223 1.7 7.0 0.00 0.00 0.00 37
20260504041630 57 202 1.7 6.1 0.00 0.00 0.00 37
20260504040521 57 220 1.7 4.3 0.00 0.00 0.00 37
20260504035551 57 223 1.7 5.2 0.00 0.00 0.00 36
20260504034538 58 230 0.9 5.2 0.00 0.00 0.00 36
20260504033530 58 219 0.9 5.2 0.00 0.00 0.00 37
20260504032522 58 221 1.7 4.3 0.00 0.00 0.00 36
20260504031529 58 224 0.9 5.2 0.00 0.00 0.00 36
20260504030522 58 218 0.9 1.7 0.00 0.00 0.00 35
20260504025537 58 222 0.9 5.2 0.00 0.00 0.00 35
20260504024521 59 220 0.9 2.6 0.00 0.00 0.00 34
20260504023530 59 223 0.9 5.2 0.00 0.00 0.00 34
20260504022542 59 217 0.9 2.6 0.00 0.00 0.00 34
20260504021530 59 214 0.9 2.6 0.00 0.00 0.00 34
20260504020522 59 222 0.0 1.7 0.00 0.00 0.00 35
20260504015530 60 211 0.9 1.7 0.00 0.00 0.00 34
20260504014522 60 221 0.9 2.6 0.00 0.00 0.00 32
20260504013530 61 219 0.9 1.7 0.00 0.00 0.00 32
20260504012522 61 221 0.9 1.7 0.00 0.00 0.00 31
20260504011530 62 229 0.9 2.6 0.00 0.00 0.00 30
20260504010522 63 227 1.7 5.2 0.00 0.00 0.00 29
20260504005531 63 225 1.7 4.3 0.00 0.00 0.00 29
20260504004522 63 225 0.9 2.6 0.00 0.00 0.00 28
20260504003530 64 226 0.9 5.2 0.00 0.00 0.00 28
20260504002522 64 219 0.9 2.6 0.00 0.00 0.00 27
20260504001550 64 230 0.9 4.3 0.00 0.00 0.00 27
20260504000522 65 219 0.9 2.6 0.00 0.00 0.00 27
20260503235530 66 264 0.9 4.3 0.00 0.00 0.00 26
20260503234542 66 228 1.7 6.1 0.00 0.00 0.00 25
20260503233530 66 236 1.7 7.0 0.00 0.00 0.00 26
20260503232522 66 245 1.7 5.2 0.00 0.00 0.00 26
20260503231530 67 235 1.7 5.2 0.00 0.00 0.00 25
20260503230522 66 271 2.6 6.1 0.00 0.00 0.00 26
20260503225530 66 235 2.6 7.0 0.00 0.00 0.00 25
20260503224542 67 240 1.7 6.1 0.00 0.00 0.00 25
20260503223530 66 227 0.9 4.3 0.00 0.00 0.00 25
20260503222523 67 222 0.9 4.3 0.00 0.00 0.00 25
20260503221531 68 235 1.7 4.3 0.00 0.00 0.00 24
20260503220542 69 230 1.7 5.2 0.00 0.00 0.00 24
20260503215530 69 234 1.7 5.2 0.00 0.00 0.00 24
20260503214602 68 256 1.7 5.2 0.00 0.00 0.00 24
20260503213530 68 241 1.7 5.2 0.00 0.00 0.00 25
20260503212523 69 232 2.6 7.0 0.00 0.00 0.00 24
20260503211530 68 223 1.7 6.1 0.00 0.00 0.00 24
20260503210523 68 246 1.7 4.3 0.00 0.00 0.00 25
20260503205530 68 231 2.6 6.1 0.00 0.00 0.00 24
20260503204522 68 243 1.7 5.2 0.00 0.00 0.00 25
20260503203536 67 229 1.7 4.3 0.00 0.00 0.00 25
20260503202523 66 229 1.7 6.1 0.00 0.00 0.00 26
20260503201530 66 246 2.6 6.1 0.00 0.00 0.00 26
20260503200523 65 272 1.7 6.1 0.00 0.00 0.00 27
20260503195531 64 338 1.7 6.1 0.00 0.00 0.00 27
20260503194523 65 243 1.7 6.1 0.00 0.00 0.00 26
20260503193531 64 226 1.7 5.2 0.00 0.00 0.00 26
20260503192522 64 252 2.6 8.7 0.00 0.00 0.00 26
20260503191530 64 341 2.6 7.0 0.00 0.00 0.00 27
20260503190523 64 9 3.5 8.7 0.00 0.00 0.00 26
20260503185530 63 0 2.6 7.0 0.00 0.00 0.00 26
20260503184543 62 322 3.5 13.0 0.00 0.00 0.00 27
20260503183551 63 7 3.5 9.6 0.00 0.00 0.00 27
20260503182523 62 333 2.6 12.2 0.00 0.00 0.00 28
20260503181531 62 297 2.6 8.7 0.00 0.00 0.00 28
20260503180523 62 348 3.5 12.2 0.00 0.00 0.00 28
20260503175531 62 351 4.3 11.3 0.00 0.00 0.00 28
20260503174523 62 329 3.5 7.0 0.00 0.00 0.00 29
20260503173533 61 350 2.6 7.0 0.00 0.00 0.00 29
20260503172539 61 0 3.5 9.6 0.00 0.00 0.00 30
20260503171531 60 7 2.6 7.0 0.00 0.00 0.00 31
20260503170603 60 342 3.5 13.0 0.00 0.00 0.00 30
20260503150523 55 342 1.7 6.1 0.00 0.00 0.00 34
20260503130536 47 329 0.9 2.6 0.00 0.00 0.00 66
20260503110524 40 0.0 0.0 0.00 0.00 0.00 96
20260503081534 42 0.0 0.0 0.00 0.00 0.00 87
20260503080524 43 230 0.0 0.9 0.00 0.00 0.00 86
20260503072524 45 230 0.0 0.9 0.00 0.00 0.00 80
20260503071552 45 0.0 0.0 0.00 0.00 0.00 79
20260503070524 46 0.0 0.0 0.00 0.00 0.00 77
20260503054525 49 0.0 0.0 0.00 0.00 0.00 74
20260503053532 49 0.0 0.0 0.00 0.00 0.00 69
20260503052525 49 210 0.0 0.9 0.00 0.00 0.00 70